Main page
METAR-TAF:

METAR-TAF

Airports :

Shahrekord Airport

Shahrekord, Iran

latitude: 32-20N, longitude: 050-51E, elevation: 2078 m

Current weather observation

The report was made 46 minutes ago, at 09:00 UTC
Wind 17 kt from the Southwest
Temperature 17°C
Humidity 36%
Pressure 1018 hPa
Visibility 10 km or more
Few clouds at a height of 3500 ft

METAR: OIFS 190900Z 22017KT 9999 FEW035 17/02 Q1018

Time: 14:16 (09:46 UTC)


TAF: missing

Weather observations and forecasts of more than 4000 airports (METAR and TAF reports).

The available stations are represented by yellow and red dots on the map.

Hover mouse over dot to see the name of the station.

Then click to see weather observations and forecasts.

To change the map : click on the green buttons with a black cross to zoom in, on the green button with a dash to zoom out, or on the green arrows for adjacent maps.


METAR-TAF: